TVSAT 2

Satellite information

Favourite Embed

Satellite Type and Status

PAYLOADIN ORBIT

Key statistics

Satellite TVSAT 2 at a glance.

Uptime

13277

Days in orbit

Revolutions

≈ 1.0

Per day

Orbit

OTHER

Other

Inclination

14.7

Latest

Satellite identification and parameters

Extended collection of information and parameters for TVSAT 2.

Object identification

Identified? True

Debris? False

Object name: TVSAT 2

International designator: 1989-062A

Object number (NORAD): 20168

Object ID (CCSDS): 20168

Country: GERMANY (GER)

Current information (Y/N): Y

RCS size: LARGE

Orbital parameters

Period: 1442.097 minutes

Inclination: 14.6981 deg

SMA: 42282.094 km

Apoapsis: 35944.045 km

Periapsis: 35863.873 km

RAAN: 357.211 deg

Eccentricy: 0.00094806

Argument of periapsis: 215.1862 deg

Mean anomaly: 196.4449 deg

Mean motion: 0.99854589 rev/day

Mean motion (dot): -0.00000353 rev/day2

B* drag term: 0.0 1/REarth

Two-line elements (TLE)

Creation date: Dec. 11, 2025, 7:14 p.m.

Reference frame: TEME

Reference center: EARTH

Epoch: Dec. 11, 2025, 12:47 p.m. UTC

TLE line 0: 0 TVSAT 2

TLE line 1: 1 20168U 89062A 25345.53293093 -.00000353 00000-0 00000-0 0 9997

TLE line 2: 2 20168 14.6981 357.2110 0009481 215.1862 196.4449 0.99854589132633

Live tracking on map

Real-time ground track for satellite TVSAT 2.

In-orbit conjunctions

A list of the most updated potential collisions computed for object TVSAT 2.

Target Orbit TCA Probability of collision Miss distance Type
SYMPHONIE 1 OTHER 2025-12-03 22:26:49 TBA 3176.0 (m) PAYLOAD
ATLAS 5 CENTAUR DEB OTHER 2025-05-23 10:54:59 TBA 3299.0 (m) DEBRIS

Associated space launch

German geostationary communications satellite

TVSAT 2 was lifted into orbit during the mission ‘Ariane 44LP | TV-Sat 2’, on board a Ariane 44LP space rocket.

The launch took place on Aug. 8, 1989, 11:25 p.m. from Ariane Launch Area 2.

For more information about the launch, click the button.

Launch to space Ariane 44LP | TV-Sat 2
Ariane 44LP | TV-Sat 2

Agency: N/A

Status: Launch Successful

Launch date: Aug. 8, 1989, 11:25 p.m. UTC

Rocket: Ariane 44LP

Launch pad: Ariane Launch Area 2

Location: Guiana Space Centre, French Guiana

...

Latest news about this satellite

There are no fresh news available about this satellite. Check back as we update our databases every day.


Newsletter sign-up

Weekly statistics, charts and insights to help you stay on top of the space industry.